Pittsfield, IL

5:11 PM CST on February 24, 2017 (GMT -0600)
Pittsfield Penstone Municipal

Weather History for KPPQ - January, 2013

Change the Weather History Date:

Thursday, January 10, 2013

  Actual Average (KUIN) Record (KUIN)
Temperature  
Mean Temperature 41 °F -  
Max Temperature 48 °F 28 °F 60 °F (2017)
Min Temperature 34 °F 12 °F -21 °F (1982)
Degree Days  
Heating Degree Days 24    
Moisture  
Dew Point 37 °F    
Average Humidity 86    
Maximum Humidity 97    
Minimum Humidity 65    
Precipitation  
Precipitation 0.67 in - - ()
Sea Level Pressure  
Sea Level Pressure 30.13 in    
Wind  
Wind Speed 6 mph (East)    
Max Wind Speed 10 mph    
Max Gust Speed 16 mph    
Visibility 5 miles    
Events Fog , Rain , Thunderstorm    
Averages and records for this station are not official NWS values.
T = Trace of Precipitation, MM = Missing Value Source: NWS Daily Summary

Daily Weather History Graph

Daily Weather History Graph

Search for Another Location

Airport or City:

Trip Planner

Search our weather history database for the weather conditions in past years. The results will help you decide how hot, cold, wet, or windy it might be!

Date:

Astronomy

Jan. 10, 2013 Rise Set
Actual Time 7:23 AM CST 4:58 PM CST
Civil Twilight 6:53 AM CST 5:28 PM CST
Nautical Twilight 6:20 AM CST 6:01 PM CST
Astronomical Twilight 5:47 AM CST 6:34 PM CST
Moon 6:03 AM CST (1/10) 4:06 PM CST (1/10)
Length of Visible Light 10h 34m
Length of Day
9h 34m
Waning Crescent, 2% of the Moon is Illuminated
Jan 10
Waning Crescent
Jan 11
New
Jan 18
First Quarter
Jan 26
Full
Feb 3
Last Quarter

Hourly Weather History & Observations

Time (CST) Temp. Windchill Dew Point Humidity Pressure Visibility Wind Dir Wind Speed Gust Speed Precip Events Conditions
12:15 AM 36.7 °F 34.1 °F 30.0 °F 77% 30.46 in 10.0 mi East 3.5 mph - N/A   Clear
12:35 AM 35.6 °F 32.8 °F 30.0 °F 80% 30.46 in 10.0 mi ESE 3.5 mph - N/A   Clear
12:55 AM 37.8 °F 35.3 °F 30.2 °F 74% 30.45 in 10.0 mi East 3.5 mph - N/A   Clear
2:15 AM 36.0 °F 32.1 °F 29.8 °F 78% 30.44 in 10.0 mi East 4.6 mph - N/A   Clear
2:35 AM 36.0 °F 32.1 °F 30.0 °F 79% 30.43 in 10.0 mi East 4.6 mph - N/A   Clear
2:55 AM 34.7 °F 30.6 °F 30.0 °F 83% 30.43 in 10.0 mi East 4.6 mph - N/A   Clear
3:15 AM 35.4 °F - 30.2 °F 81% 30.42 in 10.0 mi Calm Calm - N/A   Clear
3:35 AM 35.8 °F 30.9 °F 30.7 °F 82% 30.41 in 10.0 mi ENE 5.8 mph - N/A   Clear
3:55 AM 36.3 °F 31.6 °F 30.6 °F 80% 30.40 in 10.0 mi ENE 5.8 mph - N/A   Clear
4:15 AM 36.1 °F 31.4 °F 30.4 °F 80% 30.40 in 10.0 mi East 5.8 mph - N/A   Clear
4:35 AM 36.7 °F 30.5 °F 30.2 °F 77% 30.38 in 10.0 mi East 8.1 mph - N/A   Clear
4:55 AM 36.5 °F 32.7 °F 30.2 °F 78% 30.37 in 10.0 mi East 4.6 mph - N/A   Clear
5:15 AM 36.7 °F 32.9 °F 30.2 °F 77% 30.37 in 10.0 mi East 4.6 mph - N/A   Clear
5:35 AM 37.8 °F 33.3 °F 30.0 °F 74% 30.36 in 10.0 mi East 5.8 mph - N/A   Clear
5:55 AM 38.3 °F 33.2 °F 29.5 °F 71% 30.36 in 10.0 mi East 6.9 mph - N/A   Clear
6:15 AM 38.5 °F 33.4 °F 29.3 °F 70% 30.35 in 10.0 mi ENE 6.9 mph - N/A   Scattered Clouds
6:35 AM 38.5 °F 32.7 °F 28.9 °F 69% 30.33 in 10.0 mi ENE 8.1 mph - N/A   Scattered Clouds
6:55 AM 38.5 °F 33.4 °F 28.9 °F 69% 30.33 in 10.0 mi ENE 6.9 mph - N/A   Clear
7:15 AM 39.2 °F 33.0 °F 28.4 °F 65% 30.31 in 10.0 mi ENE 9.2 mph - N/A   Scattered Clouds
7:35 AM 39.2 °F 32.5 °F 28.4 °F 65% 30.31 in 10.0 mi ENE 10.4 mph - N/A   Mostly Cloudy
7:55 AM 39.4 °F 33.8 °F 28.9 °F 66% 30.31 in 10.0 mi East 8.1 mph - N/A Rain Light Rain
8:15 AM 39.2 °F 33.6 °F 29.1 °F 67% 30.30 in 10.0 mi ENE 8.1 mph - N/A   Mostly Cloudy
8:35 AM 38.7 °F 32.4 °F 30.4 °F 72% 30.30 in 10.0 mi ENE 9.2 mph - N/A Rain Light Rain
8:55 AM 38.5 °F 32.1 °F 30.9 °F 74% 30.29 in 10.0 mi East 9.2 mph - N/A   Light Drizzle
9:15 AM 39.2 °F 33.6 °F 30.6 °F 71% 30.28 in 10.0 mi ENE 8.1 mph - N/A   Overcast
9:35 AM 39.0 °F 32.8 °F 31.1 °F 73% 30.26 in 10.0 mi East 9.2 mph - N/A Rain Light Rain
9:55 AM 39.4 °F 33.2 °F 30.9 °F 72% 30.26 in 10.0 mi East 9.2 mph - N/A Rain Light Rain
10:15 AM 40.1 °F 35.3 °F 31.8 °F 72% 30.24 in 10.0 mi East 6.9 mph - N/A Rain Rain
10:35 AM 40.1 °F 35.3 °F 32.5 °F 74% 30.23 in 10.0 mi East 6.9 mph - N/A Rain Light Rain
10:55 AM 40.1 °F 34.7 °F 33.6 °F 78% 30.21 in 10.0 mi East 8.1 mph - N/A Rain Light Rain
11:15 AM 39.2 °F 33.0 °F 35.2 °F 86% 30.19 in 2.5 mi East 9.2 mph 16.1 mph N/A Rain Rain
11:35 AM 38.7 °F 32.4 °F 36.5 °F 92% 30.17 in 2.0 mi East 9.2 mph - 0.01 in Rain Rain
11:55 AM 39.2 °F 33.0 °F 37.0 °F 92% 30.14 in 2.0 mi East 9.2 mph - 0.02 in   Drizzle
12:15 PM 38.7 °F 31.8 °F 37.2 °F 95% 30.12 in 1.8 mi East 10.4 mph - 0.01 in   Drizzle
12:35 PM 39.2 °F 33.0 °F 37.6 °F 94% 30.10 in 2.5 mi East 9.2 mph - 0.01 in   Light Drizzle
12:55 PM 39.2 °F 32.5 °F 37.8 °F 95% 30.08 in 4.0 mi East 10.4 mph - 0.01 in   Overcast
1:15 PM 40.1 °F 34.1 °F 38.5 °F 94% 30.06 in 2.0 mi East 9.2 mph - N/A   Overcast
1:35 PM 40.6 °F 34.8 °F 39.4 °F 95% 30.07 in 1.0 mi ESE 9.2 mph - N/A   Overcast
1:55 PM 41.0 °F 35.2 °F 39.7 °F 95% 30.07 in 0.5 mi ESE 9.2 mph - N/A Fog Fog
2:15 PM 41.5 °F 35.9 °F 40.5 °F 96% 30.06 in 0.2 mi ESE 9.2 mph - N/A Fog Fog
2:35 PM 41.9 °F 36.9 °F 40.8 °F 96% 30.04 in 0.2 mi ESE 8.1 mph - N/A Fog Fog
2:55 PM 42.3 °F 37.3 °F 41.2 °F 96% 30.03 in 0.2 mi East 8.1 mph - N/A Fog Fog
3:15 PM 42.8 °F 37.5 °F 41.5 °F 95% 30.03 in 0.2 mi ESE 9.2 mph - N/A Fog Fog
3:35 PM 43.0 °F 38.8 °F 41.9 °F 96% 30.03 in 0.2 mi ESE 6.9 mph - N/A Fog Fog
3:55 PM 43.5 °F 38.9 °F 42.3 °F 95% 30.02 in 0.2 mi ESE 8.1 mph - N/A Fog Fog
4:15 PM 43.7 °F 39.7 °F 42.4 °F 95% 30.00 in 0.2 mi East 6.9 mph - N/A   Drizzle
4:35 PM 43.7 °F 40.3 °F 42.4 °F 95% 30.00 in 0.2 mi East 5.8 mph - N/A   Drizzle
4:55 PM 43.7 °F 41.1 °F 42.4 °F 95% 29.97 in 0.2 mi East 4.6 mph - N/A   Drizzle
5:15 PM 43.3 °F 40.7 °F 42.3 °F 96% 29.96 in 0.2 mi ENE 4.6 mph - 0.01 in   Drizzle
5:35 PM 43.2 °F 41.5 °F 42.3 °F 97% 29.95 in 0.2 mi ENE 3.5 mph - 0.02 in Rain Rain
5:55 PM 43.7 °F - 42.8 °F 97% 29.95 in 1.0 mi Calm Calm - 0.09 in Rain Rain
6:15 PM 43.3 °F 40.7 °F 42.4 °F 97% 29.93 in 0.8 mi East 4.6 mph - 0.01 in Rain Rain
6:35 PM 43.7 °F - 42.8 °F 97% 29.93 in 0.8 mi Calm Calm - 0.02 in   Heavy Drizzle
6:55 PM 43.7 °F 42.1 °F 42.8 °F 97% 29.93 in 1.0 mi East 3.5 mph - 0.06 in Rain Rain
7:15 PM 44.1 °F 42.5 °F 43.0 °F 96% 29.92 in 1.0 mi ESE 3.5 mph - 0.05 in Rain Heavy Rain
7:35 PM 44.6 °F 43.1 °F 43.7 °F 97% 29.91 in 1.0 mi East 3.5 mph - 0.12 in Rain Rain
7:55 PM 45.1 °F - 44.1 °F 96% 29.90 in 0.8 mi Calm Calm - 0.12 in Rain Light Rain
8:15 PM 45.3 °F 43.0 °F 44.1 °F 95% 29.89 in 0.5 mi East 4.6 mph - 0.01 in Rain Light Rain
8:35 PM 45.7 °F 43.4 °F 44.6 °F 96% 29.87 in 0.5 mi East 4.6 mph - 0.01 in Fog Fog
8:55 PM 46.6 °F - 45.5 °F 96% 29.86 in 0.2 mi East 4.6 mph - 0.01 in Fog Fog
9:15 PM 47.5 °F - 46.4 °F 96% 29.84 in 0.2 mi East 6.9 mph - 0.01 in Rain Rain
9:35 PM 47.7 °F - 46.4 °F 95% 29.83 in 0.5 mi ESE 8.1 mph - 0.03 in Rain Rain
9:55 PM 48.4 °F - 47.3 °F 96% 29.81 in 0.8 mi Calm Calm - 0.04 in Rain Rain
10:15 PM 48.2 °F - 46.9 °F 95% 29.81 in 0.5 mi East 3.5 mph - 0.01 in Rain Light Rain
10:35 PM 47.8 °F - 46.6 °F 95% 29.80 in 0.8 mi Calm Calm - 0.05 in Rain , Thunderstorm Heavy Thunderstorms and Rain
10:55 PM 48.2 °F - 46.8 °F 95% 29.80 in 1.0 mi Calm Calm - 0.21 in Rain Rain
11:15 PM 48.4 °F - 47.3 °F 96% 29.79 in 1.8 mi ESE 3.5 mph - 0.05 in Rain Rain
11:35 PM 48.2 °F - 47.3 °F 97% 29.80 in 0.8 mi SE 3.5 mph - 0.08 in Rain Rain
11:55 PM 48.9 °F - 47.8 °F 96% 29.78 in 0.8 mi East 3.5 mph - 0.11 in Rain Light Rain